| time (UTC) | temp F | wind direction | speed MPH | gust MPH | rain 1hr in | rain 24hr in | rain mn in | humidity % | barometer mb |
| 20260510230057 | 79 | 257 | 11.0 | 19.0 | 0.00 | 0.00 | 0.00 | 13 | 1011.3 |
| 20260510224554 | 78 | 223 | 4.0 | 17.0 | 0.00 | 0.00 | 0.00 | 14 | 1011.5 |
| 20260510223108 | 79 | 248 | 6.0 | 19.0 | 0.00 | 0.00 | 0.00 | 14 | 1011.6 |
| 20260510221558 | 77 | 217 | 5.0 | 16.0 | 0.00 | 0.00 | 0.00 | 18 | 1011.9 |
| 20260510220058 | 77 | 212 | 4.0 | 10.0 | 0.00 | 0.00 | 0.00 | 18 | 1012.1 |
| 20260510214554 | 77 | 167 | 8.0 | 17.0 | 0.00 | 0.00 | 0.00 | 20 | 1012.2 |
| 20260510213058 | 76 | 157 | 5.0 | 15.0 | 0.00 | 0.00 | 0.00 | 21 | 1012.3 |
| 20260510211555 | 75 | 246 | 8.0 | 15.0 | 0.00 | 0.00 | 0.00 | 22 | 1012.6 |
| 20260510210056 | 75 | 192 | 10.0 | 17.0 | 0.00 | 0.00 | 0.00 | 24 | 1012.7 |
| 20260510204556 | 75 | 213 | 5.0 | 15.0 | 0.00 | 0.00 | 0.00 | 24 | 1013.0 |
| 20260510203055 | 75 | 244 | 6.0 | 21.0 | 0.00 | 0.00 | 0.00 | 24 | 1013.1 |
| 20260510201625 | 74 | 220 | 6.0 | 13.0 | 0.00 | 0.00 | 0.00 | 24 | 1013.3 |
| 20260510200055 | 73 | 217 | 4.0 | 14.0 | 0.00 | 0.00 | 0.00 | 24 | 1013.3 |
| 20260510194603 | 73 | 191 | 8.0 | 15.0 | 0.00 | 0.00 | 0.00 | 24 | 1013.4 |
| 20260510193055 | 73 | 227 | 9.0 | 13.0 | 0.00 | 0.00 | 0.00 | 25 | 1013.5 |
| 20260510191606 | 73 | 150 | 8.0 | 18.0 | 0.00 | 0.00 | 0.00 | 26 | 1013.8 |
| 20260510190106 | 72 | 182 | 6.0 | 18.0 | 0.00 | 0.00 | 0.00 | 27 | 1013.9 |
| 20260510184556 | 72 | 169 | 8.0 | 17.0 | 0.00 | 0.00 | 0.00 | 28 | 1014.0 |
| 20260510183057 | 71 | 139 | 7.0 | 15.0 | 0.00 | 0.00 | 0.00 | 28 | 1014.2 |
| 20260510181558 | 71 | 101 | 7.0 | 17.0 | 0.00 | 0.00 | 0.00 | 30 | 1014.3 |
| 20260510180057 | 70 | 192 | 6.0 | 14.0 | 0.00 | 0.00 | 0.00 | 30 | 1014.7 |
| 20260510174559 | 69 | 182 | 6.0 | 14.0 | 0.00 | 0.00 | 0.00 | 33 | 1014.8 |
| 20260510173107 | 68 | 200 | 6.0 | 15.0 | 0.00 | 0.00 | 0.00 | 34 | 1014.9 |
| 20260510171556 | 68 | 177 | 5.0 | 11.0 | 0.00 | 0.00 | 0.00 | 35 | 1015.2 |
| 20260510170054 | 66 | 169 | 6.0 | 11.0 | 0.00 | 0.00 | 0.00 | 38 | 1015.4 |
| 20260510164555 | 65 | 178 | 4.0 | 12.0 | 0.00 | 0.00 | 0.00 | 40 | 1015.6 |
| 20260510163056 | 63 | 171 | 7.0 | 12.0 | 0.00 | 0.00 | 0.00 | 40 | 1015.7 |
| 20260510161602 | 62 | 173 | 6.0 | 12.0 | 0.00 | 0.00 | 0.00 | 42 | 1015.8 |
| 20260510160133 | 60 | 183 | 4.0 | 10.0 | 0.00 | 0.00 | 0.00 | 44 | 1016.0 |
| 20260510154600 | 58 | 150 | 5.0 | 9.0 | 0.00 | 0.00 | 0.00 | 50 | 1016.2 |
| 20260510153052 | 56 | 144 | 4.0 | 9.0 | 0.00 | 0.00 | 0.00 | 55 | 1016.5 |
| 20260510151601 | 55 | 155 | 6.0 | 11.0 | 0.00 | 0.00 | 0.00 | 57 | 1016.6 |
| 20260510150052 | 53 | 150 | 3.0 | 6.0 | 0.00 | 0.00 | 0.00 | 61 | 1016.8 |
| 20260510144553 | 52 | 107 | 3.0 | 10.0 | 0.00 | 0.00 | 0.00 | 63 | 1016.8 |
| 20260510143055 | 50 | 227 | 4.0 | 7.0 | 0.00 | 0.00 | 0.00 | 66 | 1016.9 |
| 20260510141555 | 48 | 136 | 1.0 | 5.0 | 0.00 | 0.00 | 0.00 | 72 | 1016.9 |
| 20260510134555 | 44 | 155 | 2.0 | 6.0 | 0.00 | 0.00 | 0.00 | 79 | 1017.0 |
| 20260510133055 | 42 | 0 | 0.0 | 0.0 | 0.00 | 0.00 | 0.00 | 81 | 1017.1 |
| 20260510131554 | 40 | 0 | 0.0 | 0.0 | 0.00 | 0.00 | 0.00 | 82 | 1017.3 |
| 20260510130052 | 38 | 0 | 0.0 | 3.0 | 0.00 | 0.00 | 0.00 | 83 | 1017.2 |
| 20260510124551 | 37 | 5 | 0.0 | 2.0 | 0.00 | 0.00 | 0.00 | 84 | 1017.1 |
| 20260510123055 | 37 | 5 | 0.0 | 4.0 | 0.00 | 0.00 | 0.00 | 85 | 1017.2 |
| 20260510121551 | 36 | 5 | 1.0 | 5.0 | 0.00 | 0.00 | 0.00 | 84 | 1017.4 |
| 20260510120054 | 36 | 5 | 1.0 | 8.0 | 0.00 | 0.00 | 0.00 | 84 | 1017.4 |
| 20260510114554 | 37 | 5 | 2.0 | 4.0 | 0.00 | 0.00 | 0.00 | 83 | 1017.4 |
| 20260510113052 | 38 | 5 | 2.0 | 4.0 | 0.00 | 0.00 | 0.00 | 82 | 1017.5 |
| 20260510111607 | 39 | 0 | 0.0 | 0.0 | 0.00 | 0.00 | 0.00 | 81 | 1017.3 |
| 20260510110055 | 40 | 0 | 0.0 | 0.0 | 0.00 | 0.00 | 0.00 | 79 | 1017.5 |
| 20260510104553 | 41 | 0 | 0.0 | 0.0 | 0.00 | 0.00 | 0.00 | 78 | 1017.6 |
| 20260510103053 | 43 | 0 | 0.0 | 0.0 | 0.00 | 0.00 | 0.00 | 78 | 1017.6 |
| 20260510101555 | 43 | 0 | 0.0 | 0.0 | 0.00 | 0.00 | 0.00 | 79 | 1017.6 |
| 20260510100054 | 43 | 0 | 0.0 | 0.0 | 0.00 | 0.00 | 0.00 | 80 | 1017.6 |
| 20260510094552 | 43 | 0 | 0.0 | 2.0 | 0.00 | 0.00 | 0.00 | 78 | 1017.6 |
| 20260510093109 | 44 | 5 | 0.0 | 2.0 | 0.00 | 0.00 | 0.00 | 78 | 1017.6 |
| 20260510091553 | 45 | 0 | 1.0 | 3.0 | 0.00 | 0.00 | 0.00 | 77 | 1017.6 |
| 20260510090107 | 47 | 0 | 1.0 | 4.0 | 0.00 | 0.00 | 0.00 | 77 | 1017.6 |
| 20260510084551 | 48 | 5 | 2.0 | 5.0 | 0.00 | 0.00 | 0.00 | 75 | 1017.8 |
| 20260510083108 | 48 | 43 | 1.0 | 8.0 | 0.00 | 0.00 | 0.00 | 74 | 1017.9 |
| 20260510081608 | 48 | 58 | 2.0 | 5.0 | 0.00 | 0.00 | 0.00 | 73 | 1017.8 |
| 20260510080055 | 48 | 69 | 1.0 | 5.0 | 0.00 | 0.00 | 0.00 | 73 | 1017.9 |
| 20260510074600 | 47 | 339 | 2.0 | 3.0 | 0.00 | 0.00 | 0.00 | 74 | 1017.9 |
| 20260510073053 | 47 | 339 | 0.0 | 2.0 | 0.00 | 0.00 | 0.00 | 75 | 1018.0 |
| 20260510071552 | 47 | 339 | 1.0 | 4.0 | 0.00 | 0.00 | 0.00 | 74 | 1018.0 |
| 20260510070054 | 48 | 339 | 2.0 | 9.0 | 0.00 | 0.00 | 0.00 | 71 | 1018.0 |
| 20260510064604 | 50 | 141 | 0.0 | 2.0 | 0.00 | 0.00 | 0.00 | 73 | 1018.1 |
| 20260510063052 | 50 | 141 | 1.0 | 5.0 | 0.00 | 0.00 | 0.00 | 73 | 1017.9 |
| 20260510061556 | 50 | 131 | 4.0 | 9.0 | 0.00 | 0.00 | 0.00 | 73 | 1017.8 |
| 20260510060055 | 50 | 138 | 7.0 | 11.0 | 0.00 | 0.00 | 0.00 | 73 | 1017.8 |
| 20260510054552 | 50 | 154 | 5.0 | 9.0 | 0.00 | 0.00 | 0.00 | 72 | 1017.9 |
| 20260510053056 | 51 | 140 | 5.0 | 11.0 | 0.00 | 0.00 | 0.00 | 71 | 1017.9 |
| 20260510051557 | 52 | 114 | 6.0 | 12.0 | 0.00 | 0.00 | 0.00 | 70 | 1017.8 |
| 20260510050056 | 52 | 117 | 7.0 | 11.0 | 0.00 | 0.00 | 0.00 | 68 | 1017.9 |
| 20260510044628 | 53 | 128 | 6.0 | 11.0 | 0.00 | 0.00 | 0.00 | 67 | 1018.0 |
| 20260510043054 | 53 | 150 | 5.0 | 12.0 | 0.00 | 0.00 | 0.00 | 66 | 1017.7 |
| 20260510041553 | 54 | 133 | 6.0 | 9.0 | 0.00 | 0.00 | 0.00 | 64 | 1017.7 |
| 20260510040053 | 54 | 130 | 6.0 | 11.0 | 0.00 | 0.00 | 0.00 | 62 | 1017.6 |
| 20260510034555 | 55 | 126 | 7.0 | 13.0 | 0.00 | 0.00 | 0.00 | 60 | 1017.4 |
| 20260510033059 | 56 | 136 | 7.0 | 11.0 | 0.00 | 0.00 | 0.00 | 59 | 1017.3 |
| 20260510031557 | 58 | 139 | 5.0 | 9.0 | 0.00 | 0.00 | 0.00 | 52 | 1017.1 |
| 20260510030054 | 60 | 147 | 3.0 | 7.0 | 0.00 | 0.00 | 0.00 | 48 | 1016.7 |
| 20260510024554 | 62 | 147 | 2.0 | 5.0 | 0.00 | 0.00 | 0.00 | 46 | 1016.7 |
| 20260510023057 | 63 | 147 | 2.0 | 5.0 | 0.00 | 0.00 | 0.00 | 44 | 1016.4 |
| 20260510021553 | 64 | 147 | 2.0 | 5.0 | 0.00 | 0.00 | 0.00 | 43 | 1016.4 |
| 20260510020055 | 64 | 139 | 2.0 | 5.0 | 0.00 | 0.00 | 0.00 | 42 | 1016.5 |
| 20260510014554 | 64 | 139 | 2.0 | 4.0 | 0.00 | 0.00 | 0.00 | 42 | 1016.3 |
| 20260510013052 | 64 | 185 | 2.0 | 6.0 | 0.00 | 0.00 | 0.00 | 40 | 1016.5 |
| 20260510011558 | 65 | 177 | 2.0 | 6.0 | 0.00 | 0.00 | 0.00 | 40 | 1016.4 |
| 20260510010128 | 65 | 202 | 2.0 | 6.0 | 0.00 | 0.00 | 0.00 | 40 | 1016.4 |
| 20260510004557 | 66 | 160 | 2.0 | 6.0 | 0.00 | 0.00 | 0.00 | 39 | 1016.6 |
| 20260510003051 | 65 | 202 | 3.0 | 7.0 | 0.00 | 0.00 | 0.00 | 41 | 1016.6 |
| 20260510001558 | 64 | 204 | 3.0 | 8.0 | 0.00 | 0.00 | 0.00 | 41 | 1016.6 |
| 20260510000056 | 64 | 220 | 4.0 | 9.0 | 0.00 | 0.00 | 0.00 | 42 | 1016.6 |
| 20260509234621 | 64 | 207 | 6.0 | 15.0 | 0.00 | 0.00 | 0.00 | 42 | 1016.6 |
| 20260509233051 | 65 | 223 | 5.0 | 11.0 | 0.00 | 0.00 | 0.00 | 40 | 1016.5 |
| 20260509231554 | 64 | 271 | 5.0 | 8.0 | 0.00 | 0.00 | 0.00 | 39 | 1016.4 |